Total_Precipitation_Accumulation
0.02 0.06 0.18 0.25 0.27 0.18 0.13 0.11 0.09 0.09 0.11 0.13 0.13 0.13 0.12 0.11 0.10 0.10 0.12 0.15 0.22 0.28 0.32 0.36 0.45 0.49 0.47 0.38 0.26 0.15 0.10 0.08 0.06 0.04 0.05 0.07 0.11 0.13 0.12 0.11 0.13 0.19 0.24
0.03 0.07 0.17 0.26 0.28 0.21 0.16 0.12 0.10 0.09 0.10 0.12 0.14 0.14 0.14 0.13 0.14 0.16 0.18 0.20 0.24 0.28 0.34 0.42 0.47 0.47 0.42 0.32 0.18 0.09 0.05 0.02 0.01 0.01 0.01 0.02 0.06 0.08 0.08 0.08 0.11 0.20 0.26
0.05 0.09 0.17 0.27 0.28 0.23 0.19 0.13 0.10 0.09 0.10 0.12 0.15 0.16 0.15 0.14 0.16 0.20 0.23 0.23 0.25 0.26 0.31 0.36 0.36 0.31 0.29 0.22 0.11 0.06 0.03 0.02 0.01 0.01 0.02 0.04 0.07 0.11 0.12 0.10 0.14 0.21 0.24
0.08 0.10 0.17 0.27 0.30 0.26 0.20 0.13 0.11 0.11 0.12 0.14 0.17 0.19 0.21 0.19 0.20 0.23 0.25 0.22 0.22 0.24 0.27 0.23 0.17 0.13 0.14 0.12 0.07 0.04 0.03 0.02 0.02 0.02 0.05 0.07 0.09 0.18 0.18 0.16 0.16 0.17 0.18
0.12 0.14 0.19 0.27 0.32 0.30 0.25 0.18 0.15 0.14 0.15 0.16 0.19 0.22 0.25 0.25 0.24 0.23 0.24 0.19 0.17 0.18 0.15 0.10 0.07 0.06 0.06 0.05 0.05 0.03 0.02 0.01 0.02 0.03 0.05 0.08 0.13 0.25 0.22 0.19 0.19 0.20 0.18
0.16 0.21 0.28 0.33 0.35 0.35 0.30 0.24 0.21 0.21 0.18 0.18 0.19 0.22 0.26 0.28 0.26 0.23 0.19 0.13 0.11 0.10 0.08 0.06 0.05 0.04 0.03 0.02 0.02 0.02 0.02 0.01 0.01 0.03 0.04 0.07 0.12 0.26 0.22 0.18 0.17 0.19 0.19
0.18 0.25 0.35 0.41 0.41 0.39 0.36 0.33 0.29 0.28 0.24 0.22 0.20 0.22 0.26 0.28 0.25 0.20 0.13 0.10 0.08 0.07 0.06 0.05 0.04 0.03 0.02 0.01 0.01 0.01 0.01 0.01 0.01 0.02 0.05 0.07 0.14 0.25 0.21 0.16 0.14 0.15 0.16
0.19 0.30 0.42 0.52 0.50 0.44 0.40 0.38 0.35 0.32 0.30 0.28 0.26 0.27 0.28 0.28 0.24 0.18 0.13 0.10 0.08 0.07 0.07 0.06 0.04 0.02 0.02 0.01 0.01 0.01 0.01 0.01 0.01 0.02 0.04 0.05 0.09 0.14 0.11 0.10 0.10 0.11 0.11
0.26 0.37 0.48 0.60 0.61 0.56 0.51 0.46 0.41 0.36 0.35 0.34 0.33 0.34 0.30 0.26 0.23 0.18 0.14 0.12 0.10 0.08 0.07 0.06 0.04 0.03 0.02 0.02 0.01 0.01 0.00 0.00 0.01 0.01 0.02 0.03 0.05 0.07 0.07 0.09 0.11 0.12 0.13
0.46 0.49 0.56 0.65 0.65 0.59 0.55 0.53 0.49 0.43 0.40 0.40 0.39 0.35 0.32 0.27 0.24 0.21 0.15 0.12 0.10 0.08 0.07 0.06 0.05 0.03 0.03 0.02 0.01 0.00 0.00 0.01 0.01 0.01 0.01 0.01 0.03 0.04 0.05 0.08 0.10 0.12 0.14
0.76 0.68 0.67 0.71 0.71 0.65 0.60 0.56 0.54 0.49 0.44 0.42 0.39 0.35 0.33 0.31 0.26 0.20 0.13 0.10 0.09 0.08 0.07 0.07 0.05 0.03 0.02 0.01 0.00 0.00 0.00 0.01 0.00 0.00 0.01 0.01 0.03 0.04 0.05 0.07 0.09 0.10 0.12
0.91 0.86 0.78 0.74 0.72 0.72 0.67 0.60 0.60 0.53 0.47 0.44 0.38 0.36 0.35 0.32 0.27 0.17 0.14 0.12 0.09 0.08 0.08 0.07 0.05 0.03 0.01 0.00 0.00 0.00 0.00 0.00 0.00 0.00 0.01 0.01 0.02 0.03 0.05 0.06 0.07 0.07 0.07
0.97 1.01 0.97 0.89 0.78 0.72 0.73 0.63 0.58 0.53 0.49 0.45 0.38 0.36 0.35 0.35 0.31 0.25 0.19 0.19 0.15 0.10 0.09 0.08 0.06 0.03 0.01 0.00 0.00 0.00 0.00 0.00 0.00 0.00 0.00 0.00 0.01 0.02 0.04 0.05 0.05 0.06 0.07
1.16 1.08 1.10 1.04 0.92 0.78 0.72 0.67 0.60 0.54 0.50 0.46 0.39 0.34 0.32 0.30 0.27 0.22 0.18 0.17 0.15 0.10 0.09 0.07 0.05 0.03 0.01 0.01 0.00 0.00 0.00 0.00 0.00 0.00 0.00 0.00 0.00 0.02 0.03 0.04 0.05 0.06 0.07
1.33 1.24 1.25 1.16 1.01 0.89 0.79 0.70 0.63 0.60 0.53 0.47 0.44 0.40 0.31 0.24 0.20 0.18 0.15 0.14 0.13 0.11 0.09 0.06 0.04 0.03 0.02 0.01 0.01 0.00 0.00 0.00 0.00 0.00 0.00 0.00 0.00 0.01 0.01 0.02 0.03 0.05 0.09
1.54 1.48 1.48 1.37 1.21 1.02 0.89 0.76 0.65 0.62 0.61 0.59 0.49 0.43 0.40 0.31 0.23 0.19 0.16 0.14 0.12 0.10 0.09 0.07 0.05 0.03 0.03 0.02 0.01 0.01 0.01 0.01 0.01 0.01 0.01 0.01 0.01 0.00 0.01 0.01 0.03 0.07 0.11
1.58 1.65 1.66 1.60 1.49 1.24 1.05 0.94 0.78 0.69 0.66 0.64 0.59 0.48 0.42 0.37 0.31 0.26 0.21 0.16 0.13 0.12 0.11 0.11 0.09 0.05 0.03 0.02 0.01 0.01 0.01 0.01 0.01 0.01 0.01 0.01 0.01 0.01 0.01 0.01 0.03 0.07 0.09
1.70 1.69 1.81 1.82 1.72 1.55 1.33 1.17 1.00 0.84 0.76 0.66 0.62 0.55 0.45 0.41 0.36 0.33 0.27 0.20 0.17 0.15 0.12 0.12 0.11 0.07 0.04 0.03 0.02 0.02 0.01 0.01 0.00 0.01 0.01 0.01 0.01 0.01 0.01 0.01 0.02 0.03 0.06
1.78 1.82 1.87 1.98 1.97 1.92 1.80 1.62 1.38 1.13 0.99 0.88 0.76 0.66 0.55 0.46 0.40 0.38 0.32 0.25 0.21 0.18 0.14 0.10 0.09 0.08 0.05 0.03 0.03 0.02 0.01 0.01 0.01 0.00 0.00 0.00 0.00 0.00 0.00 0.00 0.01 0.02 0.03
2.00 2.08 1.99 2.12 2.24 2.29 2.31 2.14 1.92 1.57 1.27 1.06 0.89 0.79 0.71 0.60 0.49 0.42 0.38 0.32 0.27 0.24 0.21 0.17 0.12 0.09 0.06 0.05 0.05 0.03 0.02 0.01 0.01 0.00 0.00 0.00 0.01 0.01 0.00 0.01 0.01 0.01 0.02
2.07 2.24 2.19 2.16 2.33 2.54 2.37 2.13 1.90 1.66 1.47 1.28 1.11 0.98 0.87 0.76 0.67 0.54 0.44 0.39 0.34 0.30 0.27 0.24 0.22 0.19 0.14 0.12 0.11 0.08 0.04 0.03 0.02 0.01 0.02 0.02 0.02 0.01 0.01 0.01 0.01 0.02 0.03
1.89 2.15 2.16 2.23 2.36 2.53 2.40 2.24 2.16 2.09 1.88 1.67 1.52 1.24 1.01 0.87 0.77 0.69 0.58 0.48 0.43 0.40 0.37 0.35 0.32 0.28 0.24 0.22 0.22 0.21 0.12 0.06 0.03 0.03 0.03 0.03 0.03 0.03 0.02 0.02 0.02 0.03 0.03
1.47 1.85 2.00 2.06 2.20 2.31 2.47 2.71 2.68 2.54 2.20 1.77 1.47 1.35 1.24 1.17 1.05 0.89 0.84 0.73 0.59 0.51 0.45 0.44 0.41 0.37 0.33 0.29 0.28 0.34 0.31 0.18 0.10 0.06 0.05 0.05 0.05 0.05 0.05 0.05 0.05 0.05 0.05
1.14 1.47 1.81 1.99 2.10 2.11 2.19 2.42 2.53 2.38 2.02 1.67 1.47 1.44 1.46 1.40 1.34 1.26 1.10 0.99 0.86 0.72 0.60 0.58 0.55 0.51 0.50 0.45 0.40 0.36 0.37 0.35 0.34 0.23 0.11 0.08 0.08 0.08 0.09 0.09 0.08 0.08 0.09
0.95 1.25 1.57 1.81 2.01 2.02 1.93 2.01 2.23 2.32 2.20 2.02 1.84 1.65 1.52 1.48 1.41 1.38 1.28 1.16 1.04 0.94 0.86 0.80 0.73 0.70 0.67 0.63 0.57 0.51 0.48 0.44 0.44 0.48 0.32 0.17 0.15 0.14 0.15 0.15 0.15 0.16 0.17
0.80 0.96 1.25 1.53 1.83 1.99 1.92 1.92 1.99 2.04 2.12 2.03 1.86 1.78 1.62 1.56 1.50 1.37 1.33 1.26 1.16 1.10 1.03 1.00 0.98 0.91 0.85 0.79 0.74 0.68 0.68 0.65 0.58 0.64 0.61 0.41 0.34 0.28 0.27 0.28 0.27 0.27 0.27